Regional Weather Roundup
Issued by NWS Newport/Morehead, NC

Current Version | Previous Version | Text Only | Print | Product List | Glossary On
Versions: 1 2 3 4 5 6 7 8 9 10 11 12 13 14 15 16 17 18 19 20 21 22 23 24 25 26 27 28 29 30 31 32 33 34 35 36 37 38 39 40 41 42 43 44 45 46 47 48 49 50
000
ASUS42 KMHX 210622
RWRMHX
WEATHER ROUNDUP FOR EASTERN NORTH CAROLINA
NATIONAL WEATHER SERVICE NEWPORT/MOREHEAD CITY NC
200 AM EDT TUE OCT 21 2014

NOTE: "FAIR" INDICATES FEW OR NO CLOUDS BELOW 12,000 FEET
WITH NO SIGNIFICANT WEATHER AND/OR OBSTRUCTIONS TO VISIBILITY

NCZ015>017-031-032-045>047-102-103-210700-
NORTH COAST

CITY           SKY/WX    TMP DP  RH WIND       PRES   REMARKS
EDENTON        PTCLDY    55  54  95 CALM      29.96F
ELIZABETH CITY FOG       57  54  88 CALM      29.96F VSB 3/4
KITTY HAWK     CLOUDY    64  61  90 CALM      29.95F
MANTEO         MOCLDY    62  60  96 CALM      29.96F

$$

NCZ045>047-081-094-103-104-210700-
CENTRAL COAST

CITY           SKY/WX    TMP DP  RH WIND       PRES   REMARKS
FRISCO         CLOUDY    72  58  61 S14       29.96F
SWANQUARTER      N/A     66 N/A N/A S8        29.91S

$$

NCZ095-097-098-100-101-210700-
SOUTHERN COAST

CITY           SKY/WX    TMP DP  RH WIND       PRES   REMARKS
BEAUFORT       CLOUDY    66  62  87 NE3       29.94F
CEDAR ISLAND     N/A     64 N/A N/A SE3       30.00S
JACKSONVILLE   PTCLDY    55  54  96 CALM      29.96F
PINEY ISLAND   MOCLDY    65  60  84 S3        29.96F
WILMINGTON     PTCLDY    56  54  93 CALM      29.97S


$$

NCZ011>013-027>030-043-044-078>080-089-090>093-098-210700-
COASTAL PLAIN

CITY           SKY/WX    TMP DP  RH WIND       PRES   REMARKS
AHOSKIE        CLOUDY    54  52  94 CALM      29.96F
CLINTON        PTCLDY    55  55 100 CALM      29.97F
ELIZABETHTOWN  PTCLDY    58  57  95 CALM      29.96F
GOLDSBORO      MOCLDY    57  57  98 CALM      29.95F
GREENVILLE     PTCLDY    54  54 100 CALM      29.98F
HAVELOCK       MOCLDY    59  57  93 CALM      29.97F
KENANSVILLE    PTCLDY    52  51  97 CALM      29.97F
KINSTON        PTCLDY    54  53  97 CALM      29.96F
NEW BERN       PTCLDY    56  53  90 CALM      29.97F
RICHLANDS      CLEAR     52  46  82 CALM      29.96F
ROCKY MOUNT    MOCLDY    55  53  93 CALM      29.97S
WASHINGTON     CLEAR     54  53  97 CALM      29.96F
WHITEVILLE     CLEAR     57  55  93 CALM      29.96F

$$

AMZ130-135-150-152-154-156-158-170-250-252-270-ANZ085-086-088-633-658-670-210700-
MARINE OBSERVATIONS

STATION/POSITION TIME  TEMP    WIND        PRES    WAVE   SWELL
                       AIR SEA DIR/SP/G            HT/PER HT/PER
                 (UTC) (F)     (DEG/KT/KT) (MB)    (FT/S) (FT/S)
CHESAPEAKE LIGHT 0600   66     220/ 15/ 17 1014.6
64 E VA BEACH    0600   71 69  220/ 12/ 14 1014.1    4/ 5   2/10
DUCK             0600   65 69  180/  4/  5 1013.7
2 E DUCK         0600                        N/A     2/13   2/13
10 NE DUCK       0600      71                N/A     3/11   2/11
OREGON INLET     0600   67 67  170/  7/ 11 1014.3
13E OREGON INLT  0600      73                N/A     3/ 4   2/13
HATTERAS CG      0600   73 71  170/ 10/ 14 1014.7
DIAMOND BUOY     0600   73     170/ 16/ 19 1014.6    4/11   2/11
17 S OCRACOKE    0500          VRB 14/ 17  1014.9
CAPE LOOKOUT     0600   68      50/  5/  5 1014.0
BEAUFORT LAB     0600   66 69  100/  4/  5 1013.2
30 SE NEW RIVER  0600   74 76  280/ 14/ 16 1013.4    3/ 4   2/ 8
5 SE WRIGHTSVLE  0600   66 73  280/ 10/ 10   N/A
225 S CAPE HAT   0539   75 80  180/ 16/ 17 1016.2    4/12   3/12
41 SE CHARLESTON 0600   72 79  150/  4/  6 1014.6    2/ 9   2/ 9

$$



USA.gov is the U.S. government's official web portal to all federal, state and local government web resources and services.